CES126 ZBAA-ZSHC

Flight info

Callsign CES126
Flight time N/A
Altitude 39100
Route ELKU7X/36R ELKUR W40 YQG W142 DALIM A593 DPX A470 OF W95 SAPIN A470 IGRAT IGRAT91
Aircraft A346/H-SDE2E3FGHIJ3J4J5M1RWXY/LB1D1

Departure

Time N/A
Airport Beijing Capital International Airport (ZBAA)

Arrival

Time 2026-05-07 15:10
Airport Hangzhou Xiaoshan International Airport (ZSHC)
Time Latitude Longitude Altitude Speed Heading
2026-05-07 13:52 38.27229 117.12237 38965 ft 483 kts 179°
2026-05-07 13:52 38.20626 117.12710 39357 ft 477 kts 186°
2026-05-07 13:53 38.13912 117.13262 39263 ft 488 kts 188°
2026-05-07 13:53 38.07090 117.13660 39242 ft 491 kts 188°
2026-05-07 13:54 38.00267 117.14093 39222 ft 490 kts 189°
2026-05-07 13:54 37.93471 117.14527 39236 ft 489 kts 189°
2026-05-07 13:55 37.86712 117.14962 39245 ft 489 kts 189°
2026-05-07 13:55 37.79865 117.15403 39246 ft 489 kts 188°
2026-05-07 13:56 37.73111 117.15840 39246 ft 489 kts 188°
2026-05-07 13:56 37.66309 117.16279 39246 ft 489 kts 188°
2026-05-07 13:57 37.59507 117.16722 39237 ft 488 kts 189°
2026-05-07 13:57 37.52723 117.17158 39248 ft 488 kts 189°
2026-05-07 13:58 37.45946 117.17595 39250 ft 487 kts 189°
2026-05-07 13:58 37.39188 117.18030 39221 ft 486 kts 189°
2026-05-07 13:59 37.32435 117.18461 39251 ft 485 kts 190°
2026-05-07 13:59 37.25689 117.18888 39256 ft 485 kts 190°
2026-05-07 14:00 37.18985 117.19315 39213 ft 485 kts 190°
2026-05-07 14:00 37.12196 117.19748 39257 ft 486 kts 190°
2026-05-07 14:01 37.05448 117.20177 39266 ft 486 kts 190°
2026-05-07 14:01 36.98695 117.20607 39268 ft 486 kts 190°
2026-05-07 14:02 36.91942 117.21039 39262 ft 486 kts 190°
2026-05-07 14:02 36.85136 117.21471 39271 ft 486 kts 190°
2026-05-07 14:03 36.78434 117.21558 39276 ft 480 kts 193°
2026-05-07 14:03 36.71758 117.21497 39258 ft 479 kts 193°
2026-05-07 14:04 36.65096 117.21449 39277 ft 479 kts 193°
2026-05-07 14:04 36.58427 117.21406 39281 ft 479 kts 193°
2026-05-07 14:05 36.51763 117.21358 39267 ft 478 kts 193°
2026-05-07 14:05 36.45099 117.21622 39276 ft 486 kts 187°
2026-05-07 14:06 36.38333 117.22818 39289 ft 497 kts 180°
2026-05-07 14:06 36.31563 117.25012 39284 ft 506 kts 174°
2026-05-07 14:07 36.24848 117.27550 39277 ft 504 kts 174°
2026-05-07 14:07 36.18151 117.30060 39281 ft 503 kts 174°
2026-05-07 14:08 36.11443 117.32549 39281 ft 503 kts 174°
2026-05-07 14:08 36.04741 117.35028 39248 ft 502 kts 174°
2026-05-07 14:09 35.98074 117.37494 39268 ft 500 kts 174°
2026-05-07 14:09 35.91415 117.39985 39277 ft 500 kts 174°
2026-05-07 14:10 35.84757 117.42479 39282 ft 500 kts 174°
2026-05-07 14:10 35.78154 117.44944 39262 ft 498 kts 173°
2026-05-07 14:11 35.71488 117.47427 39274 ft 497 kts 173°
2026-05-07 14:11 35.64916 117.49871 39281 ft 495 kts 173°
2026-05-07 14:12 35.58319 117.52321 39284 ft 495 kts 173°
2026-05-07 14:12 35.51723 117.54768 39280 ft 495 kts 173°
2026-05-07 14:13 35.45116 117.57216 39283 ft 495 kts 173°
2026-05-07 14:13 35.38515 117.59659 39281 ft 495 kts 173°
2026-05-07 14:14 35.31911 117.62100 39247 ft 495 kts 173°
2026-05-07 14:14 35.25322 117.64532 39276 ft 494 kts 173°
2026-05-07 14:15 35.18737 117.66958 39283 ft 494 kts 173°
2026-05-07 14:15 35.12149 117.69374 39281 ft 494 kts 174°
2026-05-07 14:16 35.05563 117.71778 39270 ft 494 kts 174°
2026-05-07 14:16 34.98986 117.74184 39280 ft 493 kts 174°
2026-05-07 14:17 34.92445 117.76580 39282 ft 494 kts 174°
2026-05-07 14:17 34.85868 117.78984 39281 ft 494 kts 174°
2026-05-07 14:18 34.79282 117.81390 39258 ft 494 kts 174°
2026-05-07 14:18 34.72694 117.83762 39272 ft 493 kts 174°
2026-05-07 14:19 34.66108 117.86131 39274 ft 493 kts 174°
2026-05-07 14:19 34.59515 117.88502 39269 ft 494 kts 174°
2026-05-07 14:20 34.52927 117.90870 39256 ft 493 kts 174°
2026-05-07 14:20 34.46350 117.93231 39269 ft 493 kts 174°
2026-05-07 14:21 34.39762 117.95592 39271 ft 493 kts 174°
2026-05-07 14:21 34.33181 117.97948 39271 ft 493 kts 174°
2026-05-07 14:22 34.26586 118.00304 39261 ft 494 kts 174°
2026-05-07 14:22 34.20040 118.02674 39272 ft 494 kts 174°
2026-05-07 14:23 34.13456 118.05065 39273 ft 494 kts 174°
2026-05-07 14:23 34.06862 118.07456 39228 ft 494 kts 173°
2026-05-07 14:24 34.00261 118.09841 39259 ft 496 kts 173°
2026-05-07 14:24 33.93649 118.12245 39266 ft 496 kts 173°
2026-05-07 14:25 33.87042 118.14654 39264 ft 496 kts 173°
2026-05-07 14:25 33.80438 118.17054 39232 ft 496 kts 173°
2026-05-07 14:26 33.73864 118.19441 39261 ft 496 kts 173°
2026-05-07 14:26 33.67255 118.21844 39264 ft 496 kts 173°
2026-05-07 14:27 33.60640 118.24247 39265 ft 496 kts 173°
2026-05-07 14:27 33.54025 118.26647 39240 ft 496 kts 173°
2026-05-07 14:28 33.47413 118.29042 39259 ft 497 kts 173°
2026-05-07 14:28 33.40790 118.31440 39264 ft 497 kts 173°
2026-05-07 14:29 33.34173 118.33831 39265 ft 497 kts 173°
2026-05-07 14:29 33.27551 118.36220 39238 ft 498 kts 173°
2026-05-07 14:30 33.20914 118.38611 39263 ft 499 kts 173°
2026-05-07 14:30 33.14265 118.41007 39260 ft 499 kts 173°
2026-05-07 14:31 33.07653 118.43390 39260 ft 499 kts 173°
2026-05-07 14:31 33.01003 118.45786 39263 ft 499 kts 173°
2026-05-07 14:32 32.94365 118.48174 39259 ft 499 kts 173°
2026-05-07 14:32 32.87708 118.50566 39257 ft 499 kts 173°
2026-05-07 14:33 32.81066 118.52950 39258 ft 499 kts 173°
2026-05-07 14:33 32.75535 118.54932 39240 ft 498 kts 173°
2026-05-07 14:34 32.68902 118.57307 39230 ft 499 kts 173°
2026-05-07 14:34 32.65563 118.58487 38809 ft 498 kts 174°
2026-05-07 14:34 32.61166 118.59980 38092 ft 495 kts 174°
2026-05-07 14:34 32.58935 118.60729 37730 ft 493 kts 174°
2026-05-07 14:35 32.55643 118.61834 37206 ft 491 kts 174°
2026-05-07 14:35 32.52364 118.62936 36660 ft 489 kts 174°
2026-05-07 14:35 32.49098 118.64035 36164 ft 487 kts 174°
2026-05-07 14:35 32.45831 118.65137 35673 ft 486 kts 174°
2026-05-07 14:36 32.42571 118.66235 35195 ft 487 kts 174°
2026-05-07 14:36 32.39308 118.67333 34717 ft 488 kts 173°
2026-05-07 14:36 32.36079 118.68422 34257 ft 489 kts 173°
2026-05-07 14:36 32.32796 118.69529 33751 ft 490 kts 173°
2026-05-07 14:37 32.29514 118.70633 33227 ft 491 kts 173°
2026-05-07 14:37 32.22932 118.72836 32185 ft 492 kts 173°
2026-05-07 14:37 32.19632 118.73939 31695 ft 493 kts 173°
2026-05-07 14:38 32.16326 118.75045 31208 ft 494 kts 172°
2026-05-07 14:38 32.13021 118.76151 30735 ft 494 kts 172°
2026-05-07 14:38 32.09705 118.77262 30270 ft 495 kts 172°
2026-05-07 14:38 32.06369 118.78379 29732 ft 496 kts 172°
2026-05-07 14:39 32.03055 118.79490 29198 ft 494 kts 172°
2026-05-07 14:39 31.99761 118.80593 28640 ft 489 kts 172°
2026-05-07 14:39 31.96502 118.81681 28128 ft 485 kts 172°
2026-05-07 14:39 31.93267 118.82758 27617 ft 482 kts 172°
2026-05-07 14:40 31.90035 118.83834 27122 ft 478 kts 172°
2026-05-07 14:40 31.86847 118.84894 26641 ft 474 kts 172°
2026-05-07 14:40 31.83650 118.85969 26160 ft 471 kts 171°
2026-05-07 14:40 31.80554 118.87244 25691 ft 473 kts 165°
2026-05-07 14:41 31.77535 118.88818 25220 ft 474 kts 160°
2026-05-07 14:41 31.74646 118.90681 24767 ft 475 kts 154°
2026-05-07 14:41 31.71927 118.92903 24299 ft 476 kts 149°
2026-05-07 14:41 31.69307 118.95268 23861 ft 474 kts 147°
2026-05-07 14:42 31.66709 118.97644 23354 ft 470 kts 147°
2026-05-07 14:42 31.64161 118.99956 22834 ft 466 kts 148°
2026-05-07 14:42 31.61554 119.02267 22302 ft 461 kts 148°
2026-05-07 14:42 31.59027 119.04483 21791 ft 457 kts 148°
2026-05-07 14:43 31.56489 119.06703 21296 ft 453 kts 148°
2026-05-07 14:43 31.53970 119.08910 20792 ft 449 kts 148°
2026-05-07 14:43 31.51485 119.11090 20330 ft 444 kts 148°
2026-05-07 14:43 31.49024 119.13248 19930 ft 437 kts 148°
2026-05-07 14:44 31.46611 119.15362 19828 ft 430 kts 148°
2026-05-07 14:44 31.44203 119.17440 19827 ft 431 kts 148°
2026-05-07 14:44 31.41793 119.19537 19808 ft 431 kts 148°
2026-05-07 14:44 31.39387 119.21638 19818 ft 431 kts 148°
2026-05-07 14:45 31.36977 119.23743 19822 ft 432 kts 148°
2026-05-07 14:45 31.34570 119.25844 19817 ft 432 kts 148°
2026-05-07 14:45 31.32163 119.27944 19821 ft 431 kts 148°
2026-05-07 14:45 31.29755 119.30045 19822 ft 431 kts 148°
2026-05-07 14:46 31.27351 119.32141 19823 ft 432 kts 148°
2026-05-07 14:46 31.24939 119.34242 19821 ft 432 kts 148°
2026-05-07 14:46 31.22524 119.36343 19819 ft 432 kts 148°
2026-05-07 14:46 31.20116 119.38437 19823 ft 431 kts 148°
2026-05-07 14:47 31.17708 119.40536 19822 ft 431 kts 148°
2026-05-07 14:47 31.15307 119.42634 19824 ft 432 kts 148°
2026-05-07 14:47 31.12901 119.44738 19670 ft 432 kts 148°
2026-05-07 14:47 31.10504 119.46831 19196 ft 429 kts 148°
2026-05-07 14:48 31.08120 119.48913 18745 ft 425 kts 148°
2026-05-07 14:48 31.05768 119.50966 18276 ft 421 kts 148°
2026-05-07 14:48 31.03426 119.53009 17748 ft 418 kts 147°
2026-05-07 14:48 31.01108 119.55029 17235 ft 415 kts 147°
2026-05-07 14:49 30.98803 119.57035 16716 ft 411 kts 147°
2026-05-07 14:49 30.96518 119.59024 16243 ft 408 kts 147°
2026-05-07 14:49 30.94254 119.60993 15750 ft 405 kts 147°
2026-05-07 14:49 30.92030 119.62926 15277 ft 402 kts 147°
2026-05-07 14:50 30.89766 119.64894 14799 ft 399 kts 147°
2026-05-07 14:50 30.87575 119.66795 14336 ft 396 kts 147°
2026-05-07 14:50 30.85345 119.68730 13869 ft 394 kts 146°
2026-05-07 14:50 30.83180 119.70607 13339 ft 391 kts 146°
2026-05-07 14:51 30.81015 119.72483 12961 ft 384 kts 146°
2026-05-07 14:51 30.78879 119.74337 12916 ft 382 kts 146°
2026-05-07 14:51 30.76744 119.76188 12911 ft 383 kts 146°
2026-05-07 14:51 30.74607 119.78036 12900 ft 383 kts 146°
2026-05-07 14:52 30.72465 119.79887 12911 ft 383 kts 146°
2026-05-07 14:52 30.70336 119.81757 12810 ft 384 kts 145°
2026-05-07 14:52 30.68235 119.83672 12336 ft 382 kts 144°
2026-05-07 14:52 30.66159 119.85577 11819 ft 379 kts 144°
2026-05-07 14:53 30.64029 119.87353 11341 ft 375 kts 148°
2026-05-07 14:53 30.61810 119.88922 10857 ft 371 kts 152°
2026-05-07 14:53 30.59557 119.90364 10388 ft 368 kts 153°
2026-05-07 14:53 30.57310 119.91781 9898 ft 366 kts 153°
2026-05-07 14:54 30.55077 119.93187 9343 ft 362 kts 153°
2026-05-07 14:54 30.52910 119.94558 8758 ft 346 kts 152°
2026-05-07 14:54 30.50885 119.95843 8602 ft 320 kts 153°
2026-05-07 14:54 30.49000 119.97044 8434 ft 298 kts 153°
2026-05-07 14:55 30.47187 119.98198 8333 ft 296 kts 153°
2026-05-07 14:55 30.45370 119.99325 7949 ft 297 kts 156°
2026-05-07 14:55 30.43449 120.00208 7509 ft 297 kts 165°
2026-05-07 14:55 30.41418 120.00747 7071 ft 297 kts 171°
2026-05-07 14:56 30.39369 120.01141 6651 ft 299 kts 173°
2026-05-07 14:56 30.37339 120.01502 6200 ft 300 kts 172°
2026-05-07 14:56 30.35274 120.01874 5904 ft 297 kts 172°
2026-05-07 14:56 30.33285 120.02237 5885 ft 284 kts 172°
2026-05-07 14:57 30.31336 120.02595 5888 ft 282 kts 172°
2026-05-07 14:57 30.29394 120.02958 5887 ft 283 kts 172°
2026-05-07 14:57 30.27456 120.03320 5886 ft 281 kts 172°
2026-05-07 14:57 30.25520 120.03683 5883 ft 281 kts 172°
2026-05-07 14:58 30.23619 120.04040 5879 ft 271 kts 172°
2026-05-07 14:58 30.21806 120.04379 5871 ft 256 kts 172°
2026-05-07 14:58 30.20100 120.04698 5870 ft 242 kts 172°
2026-05-07 14:58 30.18472 120.05144 5838 ft 240 kts 152°
2026-05-07 14:59 30.17219 120.06378 5565 ft 240 kts 129°
2026-05-07 14:59 30.16182 120.07944 5078 ft 249 kts 125°
2026-05-07 14:59 30.15123 120.09546 4546 ft 252 kts 126°
2026-05-07 14:59 30.14014 120.11118 4045 ft 252 kts 127°
2026-05-07 15:00 30.12891 120.12635 3734 ft 244 kts 128°
2026-05-07 15:00 30.11803 120.14108 3383 ft 237 kts 119°
2026-05-07 15:00 30.11283 120.15823 3105 ft 222 kts 87°
2026-05-07 15:00 30.11507 120.17562 3008 ft 218 kts 68°
2026-05-07 15:01 30.12101 120.19158 2974 ft 212 kts 59°
2026-05-07 15:01 30.12780 120.20610 2956 ft 199 kts 58°
2026-05-07 15:01 30.13441 120.22003 2977 ft 197 kts 59°
2026-05-07 15:01 30.14089 120.23406 2997 ft 198 kts 59°
2026-05-07 15:02 30.14723 120.24821 2957 ft 198 kts 59°
2026-05-07 15:02 30.15349 120.26236 2927 ft 198 kts 60°
2026-05-07 15:02 30.15974 120.27656 2710 ft 198 kts 60°
2026-05-07 15:02 30.16599 120.29077 2439 ft 198 kts 60°
2026-05-07 15:03 30.17215 120.30482 2187 ft 192 kts 59°
2026-05-07 15:03 30.17804 120.31822 1943 ft 182 kts 59°
2026-05-07 15:03 30.18372 120.33107 1682 ft 175 kts 59°
2026-05-07 15:03 30.18913 120.34331 1432 ft 166 kts 58°
2026-05-07 15:04 30.19416 120.35476 1202 ft 152 kts 57°
2026-05-07 15:04 30.19882 120.36528 1016 ft 143 kts 57°
2026-05-07 15:04 30.20338 120.37548 832 ft 143 kts 58°
2026-05-07 15:04 30.20781 120.38555 663 ft 142 kts 56°
2026-05-07 15:05 30.21236 120.39566 487 ft 141 kts 58°
2026-05-07 15:05 30.21702 120.40591 306 ft 142 kts 61°
2026-05-07 15:05 30.22132 120.41595 115 ft 141 kts 60°
2026-05-07 15:05 30.22567 120.42570 42 ft 112 kts 63°
2026-05-07 15:06 30.15255 120.26018 2930 ft 194 kts 63°
2026-05-07 15:06 30.15876 120.27441 2776 ft 208 kts 64°
2026-05-07 15:06 30.16531 120.28945 2523 ft 206 kts 60°
2026-05-07 15:06 30.17170 120.30386 2252 ft 196 kts 59°
2026-05-07 15:07 30.17780 120.31762 1948 ft 187 kts 58°
2026-05-07 15:07 30.18356 120.33065 1680 ft 176 kts 59°
2026-05-07 15:07 30.18892 120.34281 1420 ft 163 kts 58°
2026-05-07 15:07 30.19384 120.35399 1211 ft 148 kts 57°
2026-05-07 15:08 30.19843 120.36435 1036 ft 143 kts 57°
2026-05-07 15:08 30.20299 120.37457 852 ft 142 kts 57°
2026-05-07 15:08 30.20748 120.38475 674 ft 142 kts 57°
2026-05-07 15:08 30.21201 120.39486 522 ft 141 kts 58°
2026-05-07 15:09 30.21659 120.40501 326 ft 143 kts 62°
2026-05-07 15:09 30.22096 120.41522 140 ft 141 kts 59°
2026-05-07 15:09 30.22536 120.42491 42 ft 121 kts 63°
2026-05-07 15:09 30.22822 120.43145 41 ft 66 kts 62°
2026-05-07 15:10 30.22971 120.43481 44 ft 29 kts 63°
2026-05-07 15:10 30.23076 120.43653 42 ft 26 kts 41°
2026-05-07 15:10 30.23168 120.43729 42 ft 7 kts 34°
2026-05-07 15:10 30.23180 120.43738 42 ft 0 kts 34°
2026-05-07 15:11 30.23180 120.43739 44 ft 0 kts 34°
2026-05-07 15:11 30.23202 120.43755 41 ft 8 kts 34°
2026-05-07 15:11 30.23253 120.43734 41 ft 11 kts 268°
2026-05-07 15:11 30.23233 120.43646 41 ft 13 kts 248°
2026-05-07 15:12 30.23193 120.43547 41 ft 11 kts 253°
2026-05-07 15:12 30.23233 120.43475 40 ft 14 kts 330°
2026-05-07 15:12 30.23298 120.43411 40 ft 9 kts 265°
2026-05-07 15:12 30.23266 120.43331 40 ft 12 kts 244°
2026-05-07 15:13 30.23237 120.43262 41 ft 11 kts 244°
2026-05-07 15:13 30.23205 120.43174 40 ft 10 kts 272°
2026-05-07 15:13 30.23235 120.43135 40 ft 4 kts 358°
2026-05-07 15:13 30.23266 120.43155 40 ft 7 kts 38°
2026-05-07 15:14 30.23290 120.43175 40 ft 0 kts 35°
2026-05-07 15:14 30.23292 120.43178 40 ft 0 kts 35°